Tracking 19562 objects as of 21-Mar-2019
HD Live streaming from Space Station
objects crossing your sky now

IRIDIUM 36

Track IRIDIUM 36 now!
10-day predictions
IRIDIUM 36 is classified as:


NORAD ID: 24967
Int'l Code: 1997-056C
Perigee: 778.4 km
Apogee: 781.3 km
Inclination: 86.4 °
Period: 100.3 minutes
Semi major axis: 7150 km
RCS: 3.602 m2 (large)
Launch date: September 27, 1997
Source: United States (US)
Launch site: AIR FORCE WESTERN TEST RANGE (AFWTR)
aabbcc
Your satellite tracking list
Your tracking list is empty




NASA's NSSDC Master Catalog

Two Line Element Set (TLE):
1 24967U 97056C   19079.91644259 +.00000086 +00000-0 +23071-4 0  9992
2 24967 086.3973 048.9743 0002050 092.0260 268.1172 14.35707707124934
Source of the keplerian elements: AFSPC